Pecos, TX

4:14 PM CST on February 23, 2017 (GMT -0600)
Pecos Municipal

Weather History for KPEQ - September, 2012

Change the Weather History Date:

Wednesday, September 26, 2012

  Actual Average Record
Temperature  
Mean Temperature 77 °F -  
Max Temperature 94 °F 88 °F 104 °F (1951)
Min Temperature 61 °F 56 °F 43 °F (1984)
Cooling Degree Days 12    
Growing Degree Days 27 (Base 50)    
Moisture  
Dew Point 51 °F    
Average Humidity 47    
Maximum Humidity 72    
Minimum Humidity 20    
Precipitation  
Precipitation 0.00 in - - ()
Sea Level Pressure  
Sea Level Pressure 29.92 in    
Wind  
Wind Speed 5 mph (ESE)    
Max Wind Speed 29 mph    
Max Gust Speed 33 mph    
Visibility 10 miles    
Events      
Averages and records for this station are not official NWS values.
T = Trace of Precipitation, MM = Missing Value Source: NWS Daily Summary

Daily Weather History Graph

Daily Weather History Graph

Search for Another Location

Airport or City:

Trip Planner

Search our weather history database for the weather conditions in past years. The results will help you decide how hot, cold, wet, or windy it might be!

Date:

Astronomy

Sep. 26, 2012 Rise Set
Actual Time 7:45 AM CDT 7:44 PM CDT
Civil Twilight 7:20 AM CDT 8:08 PM CDT
Nautical Twilight 6:52 AM CDT 8:37 PM CDT
Astronomical Twilight 6:24 AM CDT 9:05 PM CDT
Moon 5:36 PM CDT (9/26) 4:24 AM CDT (9/26)
Length of Visible Light 12h 48m
Length of Day
11h 59m
Waxing Gibbous, 88% of the Moon is Illuminated
Sep 26
Waxing Gibbous
Sep 29
Full
Oct 8
Last Quarter
Oct 15
New
Oct 21
First Quarter

Hourly Weather History & Observations

Time (CDT) Temp. Dew Point Humidity Pressure Visibility Wind Dir Wind Speed Gust Speed Precip Events Conditions
12:15 AM 72.7 °F 49.1 °F 43% 29.90 in 10.0 mi SE 5.8 mph - N/A   Clear
12:35 AM 70.3 °F 49.1 °F 47% 29.90 in 10.0 mi SE 5.8 mph - N/A   Clear
12:55 AM 68.9 °F 48.9 °F 49% 29.90 in 10.0 mi ESE 4.6 mph - N/A   Clear
1:15 AM 68.9 °F 49.5 °F 50% 29.90 in 10.0 mi ESE 5.8 mph - N/A   Clear
1:35 AM 67.1 °F 49.3 °F 53% 29.90 in 10.0 mi East 5.8 mph - N/A   Clear
1:55 AM 66.6 °F 50.0 °F 55% 29.90 in 10.0 mi SE 5.8 mph - N/A   Clear
2:15 AM 66.9 °F 51.3 °F 57% 29.90 in 10.0 mi SE 6.9 mph - N/A   Clear
2:35 AM 68.9 °F 51.8 °F 54% 29.90 in 10.0 mi SE 8.1 mph - N/A   Clear
2:55 AM 67.1 °F 51.4 °F 57% 29.90 in 10.0 mi ESE 5.8 mph - N/A   Clear
3:15 AM 65.8 °F 51.3 °F 59% 29.90 in 10.0 mi Calm Calm - N/A   Clear
3:35 AM 66.2 °F 50.9 °F 58% 29.89 in 10.0 mi East 3.5 mph - N/A   Clear
3:55 AM 64.4 °F 50.9 °F 62% 29.89 in 10.0 mi Calm Calm - N/A   Clear
4:15 AM 65.5 °F 51.1 °F 60% 29.88 in 10.0 mi Calm Calm - N/A   Clear
4:35 AM 67.5 °F 51.8 °F 57% 29.88 in 10.0 mi Calm Calm - N/A   Clear
4:55 AM 63.3 °F 50.5 °F 63% 29.89 in 10.0 mi Calm Calm - N/A   Clear
5:15 AM 63.5 °F 50.5 °F 63% 29.89 in 10.0 mi Calm Calm - N/A   Clear
5:35 AM 63.9 °F 51.6 °F 64% 29.89 in 10.0 mi Calm Calm - N/A   Clear
5:55 AM 64.4 °F 53.8 °F 68% 29.90 in 10.0 mi Calm Calm - N/A   Clear
6:15 AM 63.9 °F 54.0 °F 70% 29.90 in 10.0 mi Calm Calm - N/A   Clear
6:35 AM 62.2 °F 53.2 °F 72% 29.91 in 10.0 mi Calm Calm - N/A   Clear
7:15 AM 62.6 °F 53.4 °F 72% 29.92 in 10.0 mi Calm Calm - N/A   Clear
7:35 AM 61.5 °F 52.2 °F 71% 29.92 in 10.0 mi Calm Calm - N/A   Clear
7:55 AM 62.2 °F 52.9 °F 71% 29.92 in 10.0 mi Calm Calm - N/A   Clear
8:15 AM 62.4 °F 53.1 °F 71% 29.93 in 10.0 mi Calm Calm - N/A   Clear
8:35 AM 63.5 °F 53.8 °F 71% 29.94 in 10.0 mi Calm Calm - N/A   Clear
8:55 AM 65.8 °F 54.9 °F 68% 29.95 in 10.0 mi Calm Calm - N/A   Clear
9:15 AM 67.3 °F 54.9 °F 64% 29.95 in 10.0 mi Calm Calm - N/A   Clear
9:35 AM 68.7 °F 54.9 °F 61% 29.96 in 10.0 mi Calm Calm - N/A   Clear
9:55 AM 70.5 °F 54.9 °F 58% 29.96 in 10.0 mi Calm Calm - N/A   Clear
10:15 AM 74.1 °F 55.0 °F 51% 29.97 in 10.0 mi East 3.5 mph - N/A   Clear
12:15 PM 84.2 °F 50.5 °F 31% 29.96 in 10.0 mi Calm Calm - N/A   Clear
12:35 PM 85.8 °F 50.4 °F 29% 29.96 in 10.0 mi NNE 3.5 mph - N/A   Clear
12:55 PM 86.9 °F 50.4 °F 28% 29.96 in 10.0 mi Calm Calm - N/A   Clear
1:35 PM 89.1 °F 47.3 °F 24% 29.95 in 10.0 mi Calm Calm - N/A   Clear
2:15 PM 91.4 °F 47.7 °F 22% 29.93 in 10.0 mi Calm Calm - N/A   Clear
2:55 PM 92.1 °F 47.7 °F 22% 29.92 in 10.0 mi North 5.8 mph - N/A   Clear
3:15 PM 92.7 °F 47.1 °F 21% 29.91 in 10.0 mi East 3.5 mph - N/A   Clear
3:35 PM 92.5 °F 46.4 °F 20% 29.91 in 10.0 mi NNE 3.5 mph - N/A   Clear
3:55 PM 93.0 °F 46.9 °F 20% 29.90 in 10.0 mi North 8.1 mph - N/A   Clear
4:15 PM 93.4 °F 47.1 °F 20% 29.89 in 10.0 mi South 8.1 mph - N/A   Clear
4:35 PM 93.7 °F 47.7 °F 21% 29.89 in 10.0 mi East 5.8 mph - N/A   Clear
4:55 PM 87.3 °F 47.5 °F 25% 29.90 in 7.0 mi ESE 28.8 mph 33.4 mph N/A   Clear
5:15 PM 88.7 °F 45.9 °F 23% 29.90 in 10.0 mi ESE 23.0 mph 27.6 mph N/A   Clear
5:35 PM 87.3 °F 47.3 °F 25% 29.90 in 10.0 mi ESE 25.3 mph 32.2 mph N/A   Clear
6:15 PM 84.4 °F 45.7 °F 26% 29.91 in 10.0 mi ESE 18.4 mph - N/A   Clear
6:35 PM 83.7 °F 46.0 °F 27% 29.91 in 10.0 mi ESE 15.0 mph - N/A   Clear
7:15 PM 82.6 °F 46.6 °F 28% 29.92 in 10.0 mi ESE 11.5 mph - N/A   Clear
7:35 PM 81.7 °F 46.6 °F 29% 29.93 in 10.0 mi SE 11.5 mph - N/A   Clear
7:55 PM 80.6 °F 46.6 °F 30% 29.93 in 10.0 mi SE 8.1 mph - N/A   Clear
8:15 PM 78.8 °F 47.1 °F 33% 29.95 in 10.0 mi SE 8.1 mph - N/A   Clear
8:35 PM 78.4 °F 48.6 °F 35% 29.94 in 10.0 mi SE 9.2 mph - N/A   Clear
8:55 PM 78.3 °F 51.4 °F 39% 29.95 in 10.0 mi SE 8.1 mph - N/A   Clear
9:15 PM 77.2 °F 53.1 °F 43% 29.96 in 10.0 mi ESE 5.8 mph - N/A   Clear
9:35 PM 76.5 °F 55.2 °F 48% 29.97 in 10.0 mi ESE 5.8 mph - N/A   Clear
9:55 PM 75.2 °F 55.8 °F 51% 29.97 in 10.0 mi East 3.5 mph - N/A   Clear
10:15 PM 72.7 °F 55.4 °F 55% 29.97 in 10.0 mi East 5.8 mph - N/A   Clear
10:35 PM 73.0 °F 56.8 °F 57% 29.97 in 10.0 mi East 6.9 mph - N/A   Clear
10:55 PM 72.7 °F 57.4 °F 59% 29.98 in 10.0 mi ESE 5.8 mph - N/A   Clear
11:15 PM 72.1 °F 57.6 °F 60% 29.98 in 10.0 mi ESE 3.5 mph - N/A   Clear
11:35 PM 71.8 °F 57.6 °F 61% 29.98 in 10.0 mi East 3.5 mph - N/A   Clear
11:55 PM 70.5 °F 57.0 °F 62% 29.98 in 10.0 mi East 5.8 mph - N/A   Clear